Regional Weather Roundup
Issued by NWS

Home | Current Version | Previous Version | Text Only | Print | Product List | Glossary On
Versions: 1 2 3 4 5 6 7 8 9 10 11 12 13 14 15 16 17 18 19 20 21 22 23 24 25 26 27 28 29 30 31 32 33 34 35 36 37 38 39 40 41 42 43 44 45 46 47 48 49 50
000
ASUS46 KLOX 241512
RWRCA

SOUTHERN CALIFORNIA WEATHER ROUNDUP
NATIONAL WEATHER SERVICE OXNARD CALIFORNIA
800 AM PDT THU APR 24 2014

NOTE: "FAIR" INDICATES FEW OR NO CLOUDS BELOW 12,000 FEET WITH NO
SIGNIFICANT WEATHER AND/OR OBSTRUCTIONS TO VISIBILITY.

  -  STATIONS PRECEEDED BY AN ASTERISK (*) ARE NOT NWS OR FAA
     STATIONS AND ARE NOT SUBJECT TO NWS AND FAA QUALITY CONTROL.

CAZ041-042-087-241600-
LA AND ORANGE COUNTY COASTAL AREAS


CITY           SKY/WX    TMP DP  RH WIND       PRES   REMARKS
L.A. DOWNTOWN  SUNNY     63  49  60 CALM      29.98R
L.A. AIRPORT   MOSUNNY   62  52  69 E7        29.99R
LONG BEACH     SUNNY     62  51  67 CALM      29.99R

CITY           SKY/WX    TMP DP  RH WIND       PRES   REMARKS
AVALON           N/A     55 N/A N/A MISG        N/A
FULLERTON      SUNNY     62  48  60 CALM      29.98R
*GETTY CENTER    N/A     59  45  58 NE3         N/A
HAWTHORNE      SUNNY     62  50  64 E5        29.99R
*LEO CARRILLO    N/A     63  40  43 N5          N/A
*LOS ALAMITOS  PTSUNNY   60  51  70 NE2       29.99R
*REDONDO BEACH   N/A     58  54  88 CALM      29.97R
SANTA ANA      MOSUNNY   63  50  62 CALM      29.98R
STA MONICA APT SUNNY     64  48  56 E5        29.99R
TORRANCE       SUNNY     64  55  72 VRB6      29.99R
*UCLA            N/A     61  46  59 NE2       29.96S

$$

CAZ547-548-048-241600-
LA COUNTY VALLEYS AND INLAND EMPIRE


CITY           SKY/WX    TMP DP  RH WIND       PRES   REMARKS
BURBANK        SUNNY     60  40  47 CALM      29.98R
VAN NUYS       MOSUNNY   60  37  42 CALM      29.98R

CITY           SKY/WX    TMP DP  RH WIND       PRES   REMARKS
CORONA AIRPORT SUNNY     56  44  64 CALM        N/A
*CHATSWORTH      N/A     61  38  42 CALM      29.97R
CHINO          MOSUNNY   60  47  61 CALM      29.99R
*CLAREMONT       N/A     61  36  39 CALM        N/A
MARCH AFB      SUNNY     56  45  65 E1        29.99R
*NORTHRIDGE      N/A     59  34  38 W1          N/A
ONTARIO        MOSUNNY   61  41  47 CALM      29.98R
*PASADENA        N/A     61  45  55 CALM        N/A
RIVERSIDE      SUNNY     58  43  57 CALM      29.99R
SAN BERNARDINO MOSUNNY   57  37  47 CALM      29.98R
*SAN GABRIEL     N/A     63  45  52 CALM      29.96S
*SAN RAFAEL HI   N/A     62  46  56 S5          N/A
*SAUGUS          N/A     59  25  27 E3          N/A
*WHITEMAN AP   SUNNY     59  36  41 CALM      29.92
*WHITTIER HILL   N/A     66  47  49 CALM        N/A
*WOODLAND HILL   N/A     57  37  47 N2          N/A

$$

CAZ054-055-241600-
LA AND SAN BERNARDINO COUNTY MOUNTAINS


CITY           SKY/WX    TMP DP  RH WIND       PRES   REMARKS
*ACTON           N/A     60  26  27 CALM        N/A
*BIG BEAR AIRP SUNNY     37  27  65 CALM      30.13S
*BIG PINES       N/A     45  18  34 CALM        N/A
*CHILAO          N/A     53  17  24 CALM        N/A
MT WILSON NWS    N/A     55  21  26 W2          N/A
SANDBERG       SUNNY     49  32  52 N15       30.08R
*WARM SPRINGS    N/A     53  28  37 W3          N/A

$$

CAZ028-029-059-060-099-241600-
ANTELOPE VALLEY AND SURROUNDING AREAS


CITY           SKY/WX    TMP DP  RH WIND       PRES   REMARKS
LANCASTER      SUNNY     57  32  38 W10       30.04R
PALMDALE       SUNNY     53  27  36 CALM      30.04R
*POPPY PARK      N/A     59  31  34 W14         N/A

CITY           SKY/WX    TMP DP  RH WIND       PRES   REMARKS
29 PALMS       MOSUNNY   59  24  26 NW5       30.06S
BARSTOW/DAGGET SUNNY     57  26  30 W10       30.02R
BISHOP         SUNNY     51  20  29 NE6       30.05S
CHINA LAKE     SUNNY     54  28  36 NW3       30.00R
EDWARDS AFB    MOSUNNY   51  28  41 VRB3      30.02R
MOJAVE           N/A    N/A N/A N/A MISG        N/A
NEEDLES        SUNNY     68   9  10 S3        29.94R
VICTORVILLE      N/A     54  25  32 S5        30.04R

$$

CAZ039-040-241600-
VENTURA AND SANTA BARBARA COUNTY COAST


CITY           SKY/WX    TMP DP  RH WIND       PRES   REMARKS
CAMARILLO      SUNNY     57  43  59 CALM      29.99R
NWS OXNARD       N/A     57  42  57 CALM      29.98R
OXNARD AIRPORT SUNNY     57  40  52 CALM      29.98R
*POINT MUGU    MOSUNNY   58  47  66 N3        29.98R
SBA APT/GOLETA SUNNY     60  47  61 NE3       29.98R
*SANTA BARBARA   N/A     60  52  74 W1        30.06R
*VENTURA         N/A     55  37  51 NE3       30.02S

$$

CAZ044-045-241600-
VENTURA COUNTY VALLEYS


CITY           SKY/WX    TMP DP  RH WIND       PRES   REMARKS
*SIMI VALLEY     N/A     63  37  39 CALM      29.94R
*OJAI            N/A     61  41  47 CALM      29.94S
*FILLMORE        N/A     60  37  42 CALM      29.89R

$$

CAZ053-241600-
VENTURA COUNTY MOUNTAINS


CITY           SKY/WX    TMP DP  RH WIND       PRES   REMARKS
*LOCKWOOD VLY    N/A     43  27  52 MISG        N/A
*ROSE VALLEY     N/A     43  30  61 MISG        N/A

$$

CAZ034-035-036-241600-
CENTRAL COAST AND SANTA YNEZ VALLEY


CITY           SKY/WX    TMP DP  RH WIND       PRES   REMARKS
SAN LUIS OBISP SUNNY     60  43  53 NW15G21   30.06R
SANTA MARIA    SUNNY     64  40  41 NW6       30.02S

CITY           SKY/WX    TMP DP  RH WIND       PRES   REMARKS
*CAL POLY SLO    N/A     55  45  67 N7G13       N/A
*CAMBRIA         N/A     52  48  86 CALM      29.95S
*LOMPOC        SUNNY     50  43  76 CALM      30.03R
*PISMO BEACH     N/A     60  45  57 E6        30.06R
*SANTA YNEZ    FAIR      46  41  81 CALM      30.02R

$$

CAZ037-038-051-241600-
SAN LUIS OBISPO COUNTY INTERIOR AND CUYAMA VALLEY


CITY           SKY/WX    TMP DP  RH WIND       PRES   REMARKS
*CUYAMA          N/A     49  32  52 CALM      29.97F
PASO ROBLES    SUNNY     50  38  63 CALM      30.09R

$$

CAZ032-033-061-241600-
SOUTHERN DESERTS


CITY           SKY/WX    TMP DP  RH WIND       PRES   REMARKS
BLYTHE         SUNNY     67  16  14 N5        29.92R
IMPERIAL       SUNNY     67  49  52 W5        29.90R
PALM SPRINGS   SUNNY     70  36  28 W3        29.94R
THERMAL        SUNNY     72  40  31 N9        29.89R

$$

ELSEWHERE ACROSS THE WESTERN UNITED STATES AND MEXICO


CITY           SKY/WX    TMP DP  RH WIND       PRES   REMARKS
DENVER, CO     MOSUNNY   44  19  36 W3        30.03R
GRAND CANYON,  MOSUNNY   51  12  21 E7        30.15S
HONOLULU, HI   MOCLDY    73  64  73 E14       30.07R
KAHULUI, MAUI  RAIN      72  66  83 NE15      30.06R
LAKE TAHOE, CA MOSUNNY   44  29  55 S9        30.09S
LAS VEGAS, NV  MOSUNNY   64  17  16 SW3       29.95R
MAMMOTH LAKES, FAIR      37  19  48 CALM      30.13R
MEXICO CITY, M PTSUNNY   68  41  37 SE3       30.35R
PHOENIX, AZ    MOSUNNY   68  23  18 E8        29.94R
PORTLAND, OR   PTSUNNY   53  50  89 SE8       29.79R
RENO, NV       PTSUNNY   50  30  46 CALM      30.04F
SALT LAKE CITY PTSUNNY   47  23  38 SE14G24   30.06R
SAN DIEGO, CA  MOSUNNY   61  52  72 S5        30.00R
SAN FRANCISCO, PTSUNNY   57  52  83 W5        30.11R
SAN JOSE, CA   PTSUNNY   55  49  80 NW8       30.12R
SEATTLE, WA    CLOUDY    50  46  86 S12       29.71R
TIJUANA, MEX   SUNNY     59  46  63 S3        30.01R

$$

STATION/POSITION TIME  TEMP    WIND        PRES    VSBY  WAVE
                       AIR SEA DIR/SP/G                  HT/PER
                 (UTC) (F)     (DEG/KT/KT) (MB)    (MI)  (FT/S)
POINT ARGUELLO B NOT AVBL
WEST SANTA BARBA 1500   54 54  330/ 21/ 25 1015.0R         9/11
POINT CONCEPTION NOT AVBL
EAST SANTA BARBA NOT AVBL
SANTA MONICA BAY 1500   60 60   60/  6/  8 1014.8R         4/11



USA.gov is the U.S. government's official web portal to all federal, state and local government web resources and services.